Peru, IL

9:34 PM CDT on June 27, 2017 (GMT -0500)
Illinois Valley Regional-Duncan

Weather History for KVYS - January, 2014

Change the Weather History Date:

Wednesday, January 29, 2014

  Actual Average Record
Temperature  
Mean Temperature 14 °F -  
Max Temperature 27 °F 30 °F 66 °F (2013)
Min Temperature 0 °F 12 °F -15 °F (1966)
Degree Days  
Heating Degree Days 52    
Moisture  
Dew Point 3 °F    
Average Humidity 62    
Maximum Humidity 79    
Minimum Humidity 46    
Precipitation  
Precipitation 0.00 in - - ()
Sea Level Pressure  
Sea Level Pressure 30.15 in    
Wind  
Wind Speed 10 mph (SW)    
Max Wind Speed 23 mph    
Max Gust Speed 30 mph    
Visibility 10 miles    
Events      
Averages and records for this station are not official NWS values.
T = Trace of Precipitation, MM = Missing Value Source: NWS Daily Summary

Daily Weather History Graph

Daily Weather History Graph

Search for Another Location

Airport or City:

Trip Planner

Search our weather history database for the weather conditions in past years. The results will help you decide how hot, cold, wet, or windy it might be!

Date:

Astronomy

Jan. 29, 2014 Rise Set
Actual Time 7:10 AM CST 5:09 PM CST
Civil Twilight 6:41 AM CST 5:38 PM CST
Nautical Twilight 6:08 AM CST 6:11 PM CST
Astronomical Twilight 5:35 AM CST 6:44 PM CST
Moon 5:47 AM CST (1/29) 4:08 PM CST (1/29)
Length of Visible Light 10h 57m
Length of Day
9h 58m
Waning Crescent, 2% of the Moon is Illuminated
Jan 29
Waning Crescent
Jan 30
New
Feb 6
First Quarter
Feb 14
Full
Feb 22
Last Quarter

Hourly Weather History & Observations

Time (CST) Temp. Windchill Dew Point Humidity Pressure Visibility Wind Dir Wind Speed Gust Speed Precip Events Conditions
12:15 AM 2.3 °F -11.4 °F -4.4 °F 74% 30.25 in 10.0 mi WSW 8.1 mph - N/A   Clear
12:35 AM 2.3 °F -10.2 °F -4.4 °F 74% 30.25 in 10.0 mi WSW 6.9 mph - N/A   Clear
12:55 AM 1.0 °F -10.3 °F -5.3 °F 75% 30.24 in 10.0 mi WSW 5.8 mph - N/A   Clear
1:15 AM 0.3 °F -9.5 °F -5.4 °F 77% 30.23 in 10.0 mi WSW 4.6 mph - N/A   Clear
1:35 AM -0.4 °F -13.4 °F -5.8 °F 78% 30.23 in 10.0 mi WSW 6.9 mph - N/A   Clear
1:55 AM -0.8 °F -13.9 °F -5.8 °F 79% 30.23 in 10.0 mi WSW 6.9 mph - N/A   Clear
2:15 AM 0.9 °F -11.9 °F -4.4 °F 79% 30.23 in 10.0 mi WSW 6.9 mph - N/A   Clear
2:35 AM 2.3 °F -8.8 °F -3.6 °F 76% 30.23 in 10.0 mi SW 5.8 mph - N/A   Clear
2:55 AM 1.4 °F -11.3 °F -4.7 °F 76% 30.23 in 10.0 mi SW 6.9 mph - N/A   Clear
3:15 AM 1.0 °F -12.9 °F -4.9 °F 76% 30.23 in 10.0 mi SW 8.1 mph - N/A   Clear
3:35 AM 1.2 °F -13.7 °F -4.5 °F 77% 30.22 in 10.0 mi SW 9.2 mph - N/A   Clear
3:55 AM 1.2 °F -13.7 °F -4.9 °F 75% 30.22 in 10.0 mi SW 9.2 mph - N/A   Clear
4:15 AM 1.8 °F -14.0 °F -4.5 °F 75% 30.23 in 10.0 mi SW 10.4 mph - N/A   Clear
4:35 AM 2.3 °F -12.4 °F -4.2 °F 74% 30.23 in 10.0 mi SW 9.2 mph - N/A   Clear
4:55 AM 2.3 °F -12.4 °F -4.4 °F 74% 30.23 in 10.0 mi SW 9.2 mph - N/A   Clear
5:15 AM 2.3 °F -11.4 °F -4.7 °F 72% 30.23 in 10.0 mi WSW 8.1 mph - N/A   Clear
5:35 AM 1.4 °F -11.3 °F -5.3 °F 74% 30.21 in 10.0 mi WSW 6.9 mph - N/A   Clear
5:55 AM 2.1 °F -9.0 °F -4.7 °F 73% 30.21 in 10.0 mi SW 5.8 mph - N/A   Clear
6:15 AM 2.5 °F -8.6 °F -4.2 °F 74% 30.21 in 10.0 mi SW 5.8 mph - N/A   Clear
6:35 AM 2.8 °F -10.7 °F -4.0 °F 73% 30.21 in 10.0 mi SW 8.1 mph - N/A   Clear
6:55 AM 1.0 °F -14.0 °F -5.3 °F 75% 30.21 in 10.0 mi SW 9.2 mph - N/A   Clear
7:15 AM 0.9 °F -13.1 °F -5.1 °F 76% 30.22 in 10.0 mi SW 8.1 mph - N/A   Clear
7:35 AM 1.4 °F -13.5 °F -4.9 °F 75% 30.21 in 10.0 mi SW 9.2 mph - N/A   Clear
7:55 AM 3.0 °F -10.5 °F -4.4 °F 71% 30.22 in 10.0 mi SW 8.1 mph - N/A   Clear
8:15 AM 4.5 °F -8.7 °F -3.5 °F 70% 30.21 in 10.0 mi SW 8.1 mph - N/A   Clear
8:35 AM 6.4 °F -6.3 °F -2.2 °F 68% 30.22 in 10.0 mi SSW 8.1 mph - N/A   Clear
8:55 AM 8.1 °F -4.3 °F -1.3 °F 66% 30.21 in 10.0 mi SSW 8.1 mph - N/A   Clear
9:15 AM 9.9 °F -2.2 °F 0.3 °F 65% 30.22 in 10.0 mi SSW 8.1 mph - N/A   Clear
9:35 AM 12.2 °F 0.7 °F 1.4 °F 62% 30.22 in 10.0 mi SW 8.1 mph - N/A   Clear
9:55 AM 14.4 °F 2.4 °F 1.8 °F 57% 30.22 in 10.0 mi SW 9.2 mph - N/A   Clear
10:15 AM 15.6 °F 3.2 °F 2.1 °F 55% 30.22 in 10.0 mi SW 10.4 mph - N/A   Clear
10:35 AM 16.9 °F 4.1 °F 2.7 °F 54% 30.21 in 10.0 mi SSW 11.5 mph - N/A   Clear
10:55 AM 18.0 °F 6.1 °F 3.2 °F 53% 30.21 in 10.0 mi SW 10.4 mph - N/A   Clear
11:15 AM 19.4 °F 7.9 °F 4.5 °F 52% 30.20 in 10.0 mi SSW 10.4 mph - N/A   Clear
11:35 AM 20.3 °F 9.0 °F 5.0 °F 52% 30.19 in 10.0 mi SSW 10.4 mph - N/A   Clear
11:55 AM 21.2 °F 10.1 °F 5.5 °F 51% 30.18 in 10.0 mi SW 10.4 mph - N/A   Clear
12:15 PM 22.6 °F 10.1 °F 6.1 °F 49% 30.17 in 10.0 mi SW 13.8 mph 18.4 mph N/A   Clear
12:35 PM 23.5 °F 9.4 °F 6.6 °F 49% 30.16 in 10.0 mi SW 18.4 mph 21.9 mph N/A   Clear
12:55 PM 24.6 °F 13.8 °F 7.2 °F 48% 30.15 in 10.0 mi WSW 11.5 mph - N/A   Clear
1:15 PM 25.2 °F 13.3 °F 7.0 °F 46% 30.15 in 10.0 mi SW 13.8 mph 20.7 mph N/A   Clear
1:35 PM 25.7 °F 12.7 °F 7.7 °F 47% 30.15 in 10.0 mi WSW 17.3 mph 24.2 mph N/A   Clear
1:55 PM 26.1 °F 14.5 °F 9.0 °F 49% 30.15 in 10.0 mi West 13.8 mph - N/A   Clear
2:15 PM 26.6 °F 15.7 °F 9.5 °F 49% 30.14 in 10.0 mi WSW 12.7 mph 21.9 mph N/A   Clear
2:35 PM 26.8 °F 14.5 °F 9.5 °F 48% 30.13 in 10.0 mi WSW 16.1 mph - N/A   Clear
2:55 PM 27.1 °F 14.5 °F 10.4 °F 49% 30.13 in 10.0 mi SW 17.3 mph - N/A   Clear
3:15 PM 27.5 °F 15.0 °F 10.6 °F 49% 30.13 in 10.0 mi WSW 17.3 mph 23.0 mph N/A   Clear
3:35 PM 27.5 °F 15.9 °F 10.8 °F 49% 30.11 in 10.0 mi SW 15.0 mph - N/A   Clear
3:55 PM 27.5 °F 16.8 °F 9.5 °F 47% 30.11 in 10.0 mi SSW 12.7 mph - N/A   Clear
4:15 PM 27.1 °F 15.9 °F 10.4 °F 49% 30.11 in 10.0 mi South 13.8 mph - N/A   Clear
4:35 PM 25.3 °F 14.7 °F 12.0 °F 57% 30.10 in 10.0 mi South 11.5 mph - N/A   Clear
4:55 PM 25.0 °F 12.6 °F 10.4 °F 54% 30.09 in 10.0 mi South 15.0 mph - N/A   Clear
5:15 PM 23.7 °F 12.6 °F 10.4 °F 57% 30.08 in 10.0 mi South 11.5 mph - N/A   Clear
5:35 PM 23.0 °F 12.4 °F 10.0 °F 58% 30.08 in 10.0 mi South 10.4 mph - N/A   Clear
5:55 PM 21.9 °F 9.8 °F 9.7 °F 59% 30.08 in 10.0 mi South 12.7 mph - N/A   Clear
6:15 PM 20.7 °F 7.1 °F 9.3 °F 62% 30.07 in 10.0 mi South 15.0 mph - N/A   Clear
6:35 PM 21.2 °F 8.3 °F 9.1 °F 60% 30.06 in 10.0 mi South 13.8 mph - N/A   Clear
6:55 PM 21.9 °F 7.8 °F 10.0 °F 60% 30.05 in 10.0 mi South 17.3 mph 24.2 mph N/A   Clear
7:15 PM 22.1 °F 8.0 °F 10.4 °F 61% 30.05 in 10.0 mi South 17.3 mph - N/A   Clear
7:35 PM 21.2 °F 7.3 °F 10.4 °F 63% 30.04 in 10.0 mi South 16.1 mph 24.2 mph N/A   Clear
7:55 PM 21.2 °F 6.4 °F 10.2 °F 63% 30.04 in 10.0 mi South 18.4 mph - N/A   Clear
8:15 PM 21.2 °F 6.8 °F 10.0 °F 62% 30.03 in 10.0 mi South 17.3 mph - N/A   Clear
8:35 PM 22.6 °F 7.5 °F 9.5 °F 57% 30.03 in 10.0 mi South 20.7 mph 26.5 mph N/A   Clear
8:55 PM 21.9 °F 8.2 °F 9.5 °F 59% 30.02 in 10.0 mi South 16.1 mph - N/A   Clear
9:15 PM 21.9 °F 7.8 °F 9.3 °F 58% 30.02 in 10.0 mi South 17.3 mph - N/A   Clear
9:35 PM 21.9 °F 7.3 °F 9.0 °F 58% 30.01 in 10.0 mi South 18.4 mph - N/A   Clear
9:55 PM 21.7 °F 7.1 °F 9.1 °F 58% 30.00 in 10.0 mi South 18.4 mph - N/A   Clear
10:15 PM 21.9 °F 6.9 °F 9.0 °F 58% 30.00 in 10.0 mi South 19.6 mph 26.5 mph N/A   Clear
10:35 PM 22.1 °F 6.4 °F 8.6 °F 56% 30.00 in 10.0 mi South 21.9 mph - N/A   Clear
10:55 PM 22.6 °F 7.5 °F 9.0 °F 56% 29.99 in 10.0 mi South 20.7 mph 28.8 mph N/A   Clear
11:15 PM 22.1 °F 6.4 °F 9.1 °F 58% 29.98 in 10.0 mi South 21.9 mph - N/A   Clear
11:35 PM 22.3 °F 6.3 °F 9.3 °F 58% 29.98 in 10.0 mi South 23.0 mph 29.9 mph N/A   Clear
11:55 PM 22.1 °F 6.4 °F 9.3 °F 58% 29.97 in 10.0 mi South 21.9 mph 27.6 mph N/A   Clear